FW6113 Weather Reports


time (UTC)temp
C
wind
direction
speed
KPH
gust
KPH
rain 1hr
cm
rain 24hr
cm
rain mn
cm
humidity
%
barometer
mb
20260906072442 21 182 0.0 1.6 0.00 0.00 0.00 94 1012.8
20260906071941 21 182 0.0 1.6 0.00 0.00 0.00 94 1012.8
20260906071441 21 182 0.0 1.6 0.00 0.00 0.00 94 1012.9
20260906070942 21 181 0.0 1.6 0.00 0.00 0.00 94 1012.8
20260906070708 21 181 0.0 1.6 0.00 0.00 0.00 94 1013.0
20260906065942 21 178 0.0 1.6 0.00 0.00 0.00 94 1013.1
20260906065700 21 178 0.0 1.6 0.00 0.00 0.00 94 1013.0
20260906065209 21 176 0.0 3.2 0.00 0.00 0.00 94 1013.0
20260906064442 21 175 0.0 3.2 0.00 0.00 0.00 94 1013.1
20260906064204 21 167 0.0 1.6 0.00 0.00 0.00 93 1013.2
20260906063442 21 167 0.0 1.6 0.00 0.00 0.00 93 1013.3
20260906062942 21 167 0.0 3.2 0.00 0.00 0.00 93 1013.3
20260906062703 21 163 1.6 4.8 0.00 0.00 0.00 94 1013.2
20260906061941 21 166 0.0 4.8 0.00 0.00 0.00 93 1013.3
20260906061703 21 173 0.0 1.6 0.00 0.00 0.00 93 1013.3
20260906060942 21 171 0.0 3.2 0.00 0.00 0.00 93 1013.4
20260906060442 22 171 0.0 3.2 0.00 0.00 0.00 93 1013.7
20260906055941 21 183 0.0 0.0 0.00 0.00 0.00 93 1013.4
20260906055709 22 183 0.0 0.0 0.00 0.00 0.00 93 1013.4
20260906054939 22 183 0.0 0.0 0.00 0.00 0.00 93 1013.5
20260906054439 22 189 0.0 0.0 0.00 0.00 0.00 93 1013.7
20260906053939 22 188 0.0 0.0 0.00 0.00 0.00 93 1013.8
20260906053439 22 188 0.0 0.0 0.00 0.00 0.00 93 1013.8
20260906052940 22 188 0.0 0.0 0.00 0.00 0.00 93 1013.9
20260906052440 22 188 0.0 1.6 0.00 0.00 0.00 93 1013.9
20260906052203 22 188 0.0 1.6 0.00 0.00 0.00 93 1014.0
20260906051438 22 188 0.0 1.6 0.00 0.00 0.00 93 1014.0
20260906050938 22 189 0.0 1.6 0.00 0.00 0.00 93 1014.0
20260906050437 22 190 0.0 1.6 0.00 0.00 0.00 93 1014.0
20260906045937 22 190 0.0 1.6 0.00 0.00 0.00 92 1014.1
20260906045436 22 190 0.0 1.6 0.00 0.00 0.00 92 1014.1
20260906044936 22 190 0.0 1.6 0.00 0.00 0.00 92 1014.0
20260906044432 22 190 0.0 1.6 0.00 0.00 0.00 92 1014.0
20260906043932 22 192 0.0 1.6 0.00 0.00 0.00 92 1014.0
20260906043432 22 193 0.0 1.6 0.00 0.00 0.00 92 1014.1
20260906042927 22 198 0.0 1.6 0.00 0.00 0.00 92 1014.1
20260906042428 22 198 0.0 1.6 0.00 0.00 0.00 92 1014.0
20260906042151 22 198 0.0 1.6 0.00 0.00 0.00 92 1014.0
20260906041423 22 198 0.0 1.6 0.00 0.00 0.00 92 1014.1
20260906041139 22 198 0.0 1.6 0.00 0.00 0.00 91 1014.0
20260906040417 22 200 0.0 1.6 0.00 0.00 0.00 91 1014.1
20260906035914 22 204 0.0 1.6 0.00 0.00 0.00 91 1014.1
20260906035409 22 207 0.0 1.6 0.00 0.00 0.00 91 1014.1
20260906034910 22 207 0.0 1.6 0.00 0.00 0.00 91 1014.1
20260906034410 23 209 0.0 1.6 0.00 0.00 0.00 90 1014.1
20260906033909 23 216 0.0 1.6 0.00 0.00 0.00 90 1014.1
20260906033410 23 216 0.0 1.6 0.00 0.00 0.00 90 1014.2
20260906032910 23 217 0.0 1.6 0.00 0.00 0.00 89 1014.2
20260906032410 23 217 0.0 1.6 0.00 0.00 0.00 89 1014.2
20260906031909 23 217 0.0 3.2 0.00 0.00 0.00 88 1014.4
20260906031410 23 217 0.0 3.2 0.00 0.00 0.00 88 1014.3
20260906030906 23 219 0.0 1.6 0.00 0.00 0.00 87 1014.3
20260906030405 23 221 0.0 3.2 0.00 0.00 0.00 88 1014.3
20260906030127 24 221 1.6 4.8 0.00 0.00 0.00 87 1014.4
20260906025405 24 227 0.0 4.8 0.00 0.00 0.00 87 1014.2
20260906024905 24 238 1.6 4.8 0.00 0.00 0.00 87 1014.3
20260906024629 24 242 3.2 6.4 0.00 0.00 0.00 86 1014.4
20260906023905 24 240 4.8 8.0 0.00 0.00 0.00 86 1014.3
20260906023624 24 215 3.2 8.0 0.00 0.00 0.00 87 1014.4
20260906022904 24 225 1.6 6.4 0.00 0.00 0.00 87 1014.4
20260906022401 23 236 1.6 6.4 0.00 0.00 0.00 87 1014.2
20260906021901 23 179 1.6 3.2 0.00 0.00 0.00 87 1014.1
20260906021402 23 180 1.6 3.2 0.00 0.00 0.00 87 1014.0
20260906021118 23 178 1.6 3.2 0.00 0.00 0.00 86 1013.9
20260906020402 23 180 1.6 3.2 0.00 0.00 0.00 86 1013.8
20260906015902 23 191 1.6 3.2 0.00 0.00 0.00 85 1013.7
20260906015622 23 191 1.6 3.2 0.00 0.00 0.00 85 1013.7
20260906014901 23 191 1.6 3.2 0.00 0.00 0.00 84 1013.7
20260906014402 23 191 1.6 3.2 0.00 0.00 0.00 84 1013.5
20260906013901 23 191 1.6 3.2 0.00 0.00 0.00 84 1013.5
20260906013854 23 190 0.0 1.6 0.00 0.00 0.00 84 1013.5
20260906012859 23 190 0.0 1.6 0.00 0.00 0.00 84 1013.7
20260906012359 24 190 0.0 1.6 0.00 0.00 0.00 83 1013.7
20260906011900 24 190 0.0 3.2 0.00 0.00 0.00 83 1013.7
20260906011400 24 190 1.6 3.2 0.00 0.00 0.00 82 1013.7
20260906010859 24 196 1.6 3.2 0.00 0.00 0.00 82 1013.5
20260906010359 24 196 1.6 3.2 0.00 0.00 0.00 83 1013.5
20260906005857 25 196 1.6 3.2 0.00 0.00 0.00 83 1013.4
20260906005356 25 197 1.6 3.2 0.00 0.00 0.00 82 1013.5
20260906004853 25 197 0.0 1.6 0.00 0.00 0.00 81 1013.4
20260906004354 25 197 1.6 4.8 0.00 0.00 0.00 80 1013.3
20260906003850 25 197 1.6 6.4 0.00 0.00 0.00 80 1013.2
20260906003350 25 206 1.6 8.0 0.00 0.00 0.00 80 1013.2
20260906002849 25 224 3.2 9.7 0.00 0.00 0.00 80 1013.2
20260906002347 25 224 3.2 9.7 0.00 0.00 0.00 81 1013.3
20260906002106 25 184 1.6 8.0 0.00 0.00 0.00 83 1013.3
20260906001348 25 159 0.0 0.0 0.00 0.00 0.00 82 1013.2
20260906001328 25 159 0.0 1.6 0.00 0.00 0.00 82 1013.1
20260906000343 25 159 0.0 1.6 0.00 0.00 0.00 83 1013.0
20260905235843 25 159 0.0 1.6 0.00 0.00 0.00 83 1012.9
20260905235340 25 159 1.6 1.6 0.00 0.00 0.00 82 1012.8
20260905234839 25 159 0.0 3.2 0.00 0.00 0.00 81 1012.8
20260905234604 26 159 0.0 3.2 0.00 0.00 0.00 81 1012.7
20260905234056 26 158 0.0 3.2 0.00 0.00 0.00 80 1012.7
20260905233336 26 158 0.0 1.6 0.00 0.00 0.00 79 1012.5
20260905232838 26 158 0.0 0.0 0.00 0.00 0.00 79 1012.6
20260905232334 26 158 0.0 1.6 0.00 0.00 0.00 78 1012.6
20260905231834 26 158 0.0 1.6 0.00 0.00 0.00 77 1012.7
20260905231559 26 158 0.0 1.6 0.00 0.00 0.00 76 1012.7
20260905230830 27 158 0.0 1.6 0.00 0.00 0.00 75 1012.8
20260905230327 27 158 0.0 3.2 0.00 0.00 0.00 74 1012.9
20260905230047 27 158 0.0 3.2 0.00 0.00 0.00 73 1013.0
20260905225322 27 158 0.0 0.0 0.00 0.00 0.00 73 1012.9
20260905224820 27 158 0.0 0.0 0.00 0.00 0.00 73 1012.9
20260905224539 27 158 0.0 0.0 0.00 0.00 0.00 74 1012.9
20260905223819 27 158 0.0 0.0 0.00 0.00 0.00 74 1013.0
20260905223318 27 158 0.0 0.0 0.00 0.00 0.00 74 1012.9
20260905223039 27 158 0.0 1.6 0.00 0.00 0.00 74 1013.0
20260905222319 27 158 0.0 1.6 0.00 0.00 0.00 73 1013.0
20260905222041 27 158 0.0 1.6 0.00 0.00 0.00 72 1012.9
20260905221537 27 158 0.0 3.2 0.00 0.00 0.00 73 1012.9
20260905221036 27 158 1.6 3.2 0.00 0.00 0.00 73 1012.9
20260905220317 27 158 1.6 3.2 0.00 0.00 0.00 70 1012.9
20260905215816 27 157 0.0 4.8 0.00 0.00 0.00 70 1013.0
20260905215317 27 157 0.0 4.8 0.00 0.00 0.00 72 1013.1
20260905214817 27 157 0.0 1.6 0.00 0.00 0.00 74 1013.2
20260905214317 27 157 0.0 1.6 0.00 0.00 0.00 73 1013.1
20260905213817 27 157 0.0 1.6 0.00 0.00 0.00 73 1013.1
20260905213317 27 156 0.0 1.6 0.00 0.00 0.00 73 1013.1
20260905212817 27 156 1.6 4.8 0.00 0.00 0.00 73 1013.2
20260905212542 27 156 1.6 4.8 0.00 0.00 0.00 71 1013.3
20260905211817 27 156 1.6 4.8 0.00 0.00 0.00 70 1013.3
20260905211317 27 153 1.6 4.8 0.00 0.00 0.00 69 1013.3
20260905210817 27 107 0.0 3.2 0.00 0.00 0.00 71 1013.4
20260905210317 27 108 0.0 3.2 0.00 0.00 0.00 70 1013.5
20260905210020 26 107 1.6 4.8 0.00 0.00 0.00 70 1013.7
20260905205901 26 108 1.6 4.8 0.00 0.00 0.00 71 1013.5
20260905204815 26 115 1.6 4.8 0.00 0.00 0.00 71 1013.5
20260905204312 26 107 1.6 8.0 0.00 0.00 0.00 70 1013.4
20260905203814 26 18 1.6 8.0 0.00 0.00 0.00 72 1013.5
20260905203313 26 292 1.6 4.8 0.00 0.00 0.00 72 1013.4
20260905202813 26 336 1.6 4.8 0.00 0.00 0.00 73 1013.4
20260905202751 26 201 1.6 4.8 0.00 0.00 0.00 75 1013.3
20260905201812 26 269 0.0 3.2 0.00 0.00 0.00 75 1013.4
20260905201313 26 270 1.6 4.8 0.00 0.00 0.00 73 1013.5
20260905200813 26 272 1.6 4.8 0.00 0.00 0.00 74 1013.9
20260905200312 26 22 3.2 6.4 0.00 0.00 0.00 73 1014.0
20260905200256 26 251 3.2 6.4 0.00 0.00 0.00 73 1014.1
20260905195312 26 283 1.6 6.4 0.00 0.00 0.00 73 1014.0
20260905195031 26 55 1.6 9.7 0.00 0.00 0.00 72 1013.8
20260905194312 26 302 3.2 9.7 0.00 0.00 0.00 73 1013.7
20260905193813 26 288 1.6 9.7 0.00 0.00 0.00 73 1013.8
20260905193531 26 262 1.6 9.7 0.00 0.00 0.00 73 1014.1
20260905192813 26 109 3.2 16.1 0.00 0.00 0.00 73 1014.3
20260905192313 26 291 4.8 17.7 0.00 0.00 0.00 74 1014.6
20260905191813 26 0 6.4 17.7 0.00 0.00 0.00 76 1014.8
20260905191313 26 21 4.8 16.1 0.00 0.00 0.00 75 1014.9
20260905190812 26 36 3.2 14.5 0.00 0.00 0.00 78 1014.8
20260905190313 26 231 4.8 12.9 0.00 0.00 0.00 77 1014.3
20260905185813 26 154 4.8 12.9 0.00 0.00 0.00 79 1014.3
20260905185313 27 29 4.8 14.5 0.00 0.00 0.00 78 1014.3
20260905184812 28 304 6.4 20.9 0.00 0.00 0.00 74 1014.3
20260905184312 30 109 6.4 20.9 0.00 0.00 0.00 68 1014.1
20260905183812 32 211 1.6 19.3 0.00 0.00 0.00 60 1013.9
20260905183308 32 247 1.6 4.8 0.00 0.00 0.00 58 1013.7
20260905182809 33 251 1.6 8.0 0.00 0.00 0.00 57 1013.4
20260905182308 33 261 3.2 8.0 0.00 0.00 0.00 56 1013.4
20260905181808 33 307 3.2 8.0 0.00 0.00 0.00 56 1013.7
20260905181309 33 132 3.2 12.9 0.00 0.00 0.00 55 1014.0
20260905180809 33 130 3.2 12.9 0.00 0.00 0.00 53 1013.9
20260905180527 33 36 3.2 8.0 0.00 0.00 0.00 55 1013.9
20260905180030 33 122 3.2 8.0 0.00 0.00 0.00 54 1013.8
20260905175309 34 71 3.2 9.7 0.00 0.00 0.00 52 1014.0
20260905174808 35 110 3.2 11.3 0.00 0.00 0.00 52 1013.9
20260905174527 35 119 3.2 11.3 0.00 0.00 0.00 53 1013.9
20260905173808 35 296 4.8 16.1 0.00 0.00 0.00 52 1014.1
20260905173308 35 86 4.8 16.1 0.00 0.00 0.00 52 1014.1
20260905172809 35 57 4.8 11.3 0.00 0.00 0.00 54 1014.2
20260905172308 35 182 4.8 11.3 0.00 0.00 0.00 55 1014.2
20260905172027 34 258 4.8 9.7 0.00 0.00 0.00 59 1014.2
20260905171308 34 134 4.8 9.7 0.00 0.00 0.00 57 1014.3
20260905170805 34 147 3.2 11.3 0.00 0.00 0.00 57 1014.4
20260905170533 34 98 3.2 11.3 0.00 0.00 0.00 57 1014.6
20260905165805 35 48 3.2 11.3 0.00 0.00 0.00 56 1014.7
20260905165306 34 96 3.2 8.0 0.00 0.00 0.00 57 1014.8
20260905164804 34 285 3.2 8.0 0.00 0.00 0.00 58 1014.9
20260905164305 35 53 3.2 11.3 0.00 0.00 0.00 56 1015.0
20260905163804 34 103 4.8 12.9 0.00 0.00 0.00 57 1015.1
20260905163302 34 134 4.8 12.9 0.00 0.00 0.00 57 1015.2
20260905163034 34 263 3.2 9.7 0.00 0.00 0.00 56 1015.2
20260905162305 34 12 3.2 9.7 0.00 0.00 0.00 58 1015.3
20260905161759 33 127 3.2 6.4 0.00 0.00 0.00 59 1015.3
20260905161521 34 111 3.2 8.0 0.00 0.00 0.00 60 1015.2
20260905160759 33 282 3.2 9.7 0.00 0.00 0.00 62 1015.2
20260905160256 33 263 3.2 11.3 0.00 0.00 0.00 60 1015.3
20260905160017 33 228 3.2 11.3 0.00 0.00 0.00 62 1015.3
20260905155256 33 111 3.2 8.0 0.00 0.00 0.00 59 1015.4
20260905154756 33 78 3.2 8.0 0.00 0.00 0.00 62 1015.4
20260905154256 33 109 1.6 6.4 0.00 0.00 0.00 62 1015.4
20260905153756 33 65 1.6 4.8 0.00 0.00 0.00 63 1015.3
20260905153256 32 78 3.2 9.7 0.00 0.00 0.00 65 1015.4
20260905152752 32 71 3.2 12.9 0.00 0.00 0.00 60 1015.5
20260905152252 32 70 3.2 12.9 0.00 0.00 0.00 61 1015.5
20260905151752 32 61 3.2 8.0 0.00 0.00 0.00 62 1015.6
20260905151252 32 91 3.2 8.0 0.00 0.00 0.00 61 1015.6
20260905150752 32 134 3.2 8.0 0.00 0.00 0.00 62 1015.6
20260905150252 32 302 1.6 6.4 0.00 0.00 0.00 63 1015.6
20260905145752 32 238 3.2 12.9 0.00 0.00 0.00 63 1015.7
20260905145250 32 241 3.2 12.9 0.00 0.00 0.00 61 1015.7
20260905144749 32 65 1.6 8.0 0.00 0.00 0.00 65 1015.6
20260905144247 32 214 1.6 6.4 0.00 0.00 0.00 64 1015.6
20260905143747 31 275 1.6 6.4 0.00 0.00 0.00 66 1015.7
20260905143244 31 280 0.0 4.8 0.00 0.00 0.00 66 1015.7
20260905142744 31 166 0.0 0.0 0.00 0.00 0.00 67 1015.7
20260905142503 30 145 0.0 0.0 0.00 0.00 0.00 70 1015.8
20260905141742 30 145 0.0 0.0 0.00 0.00 0.00 74 1015.8
20260905141242 30 179 0.0 0.0 0.00 0.00 0.00 76 1015.8
20260905140740 30 180 0.0 0.0 0.00 0.00 0.00 73 1015.8
20260905140240 30 180 0.0 0.0 0.00 0.00 0.00 76 1015.9
20260905135740 29 180 0.0 0.0 0.00 0.00 0.00 77 1015.9
20260905135237 28 181 0.0 0.0 0.00 0.00 0.00 78 1016.0
20260905134736 28 182 0.0 0.0 0.00 0.00 0.00 79 1016.0
20260905134236 28 182 0.0 0.0 0.00 0.00 0.00 79 1016.1
20260905133736 28 182 0.0 0.0 0.00 0.00 0.00 80 1016.0
20260905133236 27 182 0.0 0.0 0.00 0.00 0.00 81 1016.1
20260905132736 27 182 0.0 0.0 0.00 0.00 0.00 82 1016.1
20260905132236 27 182 0.0 0.0 0.00 0.00 0.00 83 1016.1
20260905131736 26 182 0.0 0.0 0.00 0.00 0.00 84 1016.1
20260905131456 26 182 0.0 0.0 0.00 0.00 0.00 84 1016.1
20260905130734 26 182 0.0 0.0 0.00 0.00 0.00 85 1016.2
20260905130234 26 182 0.0 0.0 0.00 0.00 0.00 86 1016.1
20260905125735 26 182 0.0 0.0 0.00 0.00 0.00 87 1016.1
20260905125235 25 182 0.0 0.0 0.00 0.00 0.00 87 1016.1
20260905125001 25 183 0.0 0.0 0.00 0.00 0.00 87 1016.0
20260905124232 25 183 0.0 0.0 0.00 0.00 0.00 88 1015.9
20260905123731 24 183 0.0 0.0 0.00 0.00 0.00 89 1016.0
20260905123233 24 183 0.0 0.0 0.00 0.00 0.00 90 1015.9
20260905122732 24 183 0.0 0.0 0.00 0.00 0.00 90 1015.9
20260905122232 23 183 0.0 0.0 0.00 0.00 0.00 91 1015.8
20260905121959 23 183 0.0 0.0 0.00 0.00 0.00 92 1015.9
20260905121232 23 183 0.0 0.0 0.00 0.00 0.00 92 1015.9
20260905120731 23 183 0.0 0.0 0.00 0.00 0.00 92 1015.8
20260905120232 23 183 0.0 0.0 0.00 0.00 0.00 92 1015.8
20260905115732 23 183 0.0 0.0 0.00 0.00 0.00 92 1015.7
20260905115232 23 183 0.0 0.0 0.00 0.00 0.00 92 1015.6
20260905114951 23 185 0.0 0.0 0.00 0.00 0.00 92 1015.6
20260905114232 23 185 0.0 0.0 0.00 0.00 0.00 92 1015.5
20260905113732 22 185 0.0 0.0 0.00 0.00 0.00 92 1015.5
20260905113232 22 185 0.0 0.0 0.00 0.00 0.00 92 1015.4
20260905112731 22 185 0.0 0.0 0.00 0.00 0.00 92 1015.4
20260905112232 22 185 0.0 0.0 0.00 0.00 0.00 92 1015.3
20260905111732 22 185 0.0 0.0 0.00 0.00 0.00 92 1015.2
20260905111232 22 185 0.0 0.0 0.00 0.00 0.00 92 1015.1
20260905110732 22 185 0.0 0.0 0.00 0.00 0.00 92 1015.1
20260905110228 22 185 0.0 0.0 0.00 0.00 0.00 92 1014.9
20260905105728 23 185 0.0 0.0 0.00 0.00 0.00 92 1015.0
20260905105228 23 185 0.0 0.0 0.00 0.00 0.00 91 1014.9
20260905104728 23 186 0.0 0.0 0.00 0.00 0.00 91 1014.8
20260905104711 23 189 0.0 0.0 0.00 0.00 0.00 91 1014.8
20260905103948 23 189 0.0 0.0 0.00 0.00 0.00 91 1014.8
20260905103228 23 189 0.0 0.0 0.00 0.00 0.00 90 1014.8
20260905102728 23 189 0.0 0.0 0.00 0.00 0.00 90 1014.7
20260905102226 23 189 0.0 0.0 0.00 0.00 0.00 89 1014.7
20260905101724 23 189 0.0 0.0 0.00 0.00 0.00 89 1014.7
20260905101223 23 189 0.0 0.0 0.00 0.00 0.00 89 1014.7
20260905100724 23 189 0.0 0.0 0.00 0.00 0.00 89 1014.7
20260905100224 24 189 0.0 3.2 0.00 0.00 0.00 88 1014.7
20260905095724 24 189 1.6 3.2 0.00 0.00 0.00 88 1014.5
20260905095223 24 189 0.0 3.2 0.00 0.00 0.00 89 1014.5
20260905094723 23 186 0.0 0.0 0.00 0.00 0.00 89 1014.6
20260905094447 23 186 0.0 0.0 0.00 0.00 0.00 89 1014.6
20260905093724 23 186 0.0 1.6 0.00 0.00 0.00 88 1014.7
20260905093659 23 186 0.0 3.2 0.00 0.00 0.00 89 1014.6
20260905092718 23 185 0.0 3.2 0.00 0.00 0.00 88 1014.6
20260905092217 23 184 0.0 1.6 0.00 0.00 0.00 88 1014.7
20260905091718 24 184 0.0 4.8 0.00 0.00 0.00 88 1014.7
20260905091218 24 185 0.0 4.8 0.00 0.00 0.00 87 1014.6
20260905090718 23 186 0.0 3.2 0.00 0.00 0.00 88 1014.7
20260905090218 23 186 0.0 0.0 0.00 0.00 0.00 88 1014.7
20260905085716 23 186 0.0 4.8 0.00 0.00 0.00 89 1014.7
20260905085214 23 185 1.6 4.8 0.00 0.00 0.00 90 1014.8
20260905084716 23 182 0.0 3.2 0.00 0.00 0.00 91 1014.8
20260905084216 22 181 0.0 0.0 0.00 0.00 0.00 92 1014.8
20260905083716 22 181 0.0 0.0 0.00 0.00 0.00 92 1014.9
20260905083213 22 181 0.0 0.0 0.00 0.00 0.00 91 1015.0
20260905082713 22 181 0.0 0.0 0.00 0.00 0.00 92 1014.9
20260905082214 22 181 0.0 0.0 0.00 0.00 0.00 91 1014.9
20260905081940 22 181 0.0 0.0 0.00 0.00 0.00 91 1014.9
20260905081212 22 181 0.0 0.0 0.00 0.00 0.00 91 1015.0
20260905080710 22 181 0.0 0.0 0.00 0.00 0.00 91 1015.1
20260905080207 23 181 0.0 0.0 0.00 0.00 0.00 91 1015.2
20260905075933 23 181 0.0 0.0 0.00 0.00 0.00 90 1015.2
20260905075205 23 181 0.0 0.0 0.00 0.00 0.00 90 1015.3
20260905074705 23 181 0.0 0.0 0.00 0.00 0.00 91 1015.3
20260905074203 23 181 0.0 0.0 0.00 0.00 0.00 90 1015.4
20260905073704 23 181 0.0 0.0 0.00 0.00 0.00 90 1015.3
20260905073202 23 181 0.0 0.0 0.00 0.00 0.00 91 1015.4
20260905072700 23 180 0.0 0.0 0.00 0.00 0.00 90 1015.3